TimeCST,TemperatureF,Dew PointF,Humidity,Sea Level PressureIn,VisibilityMPH,Wind Direction,Wind SpeedMPH,Gust SpeedMPH,PrecipitationIn,Events,Conditions,WindDirDegrees,DateUTC
12:03 AM,68.0,66.2,94,30.09,10.0,SSE,9.2,-,N/A,,Overcast,160,2012-12-04 06:03:00
12:55 AM,68.0,64.9,90,30.09,10.0,SSE,10.4,-,N/A,,Overcast,160,2012-12-04 06:55:00
1:18 AM,68.0,64.4,88,30.09,10.0,SSE,11.5,-,N/A,,Overcast,160,2012-12-04 07:18:00
1:55 AM,68.0,64.9,90,30.11,10.0,South,6.9,-,N/A,,Overcast,170,2012-12-04 07:55:00
2:29 AM,66.2,64.4,94,30.10,10.0,SSE,9.2,-,N/A,,Overcast,160,2012-12-04 08:29:00
2:55 AM,68.0,64.9,90,30.12,10.0,South,9.2,-,N/A,,Overcast,170,2012-12-04 08:55:00
3:55 AM,66.9,64.9,93,30.10,10.0,SSE,9.2,-,N/A,,Overcast,160,2012-12-04 09:55:00
4:04 AM,66.2,64.4,94,30.08,10.0,SSE,9.2,-,N/A,,Overcast,150,2012-12-04 10:04:00
4:55 AM,66.9,64.9,93,30.11,10.0,South,3.5,-,N/A,,Overcast,190,2012-12-04 10:55:00
5:45 AM,66.2,64.4,94,30.11,10.0,SSE,5.8,-,N/A,,Overcast,160,2012-12-04 11:45:00
5:55 AM,66.9,64.9,93,30.12,10.0,SSE,5.8,-,N/A,,Overcast,150,2012-12-04 11:55:00
6:55 AM,66.9,64.9,93,30.14,6.0,SE,9.2,-,N/A,,Overcast,140,2012-12-04 12:55:00
7:55 AM,68.0,66.0,93,30.15,10.0,South,6.9,-,N/A,,Overcast,170,2012-12-04 13:55:00
8:04 AM,69.8,66.2,88,30.15,10.0,South,6.9,-,N/A,,Overcast,170,2012-12-04 14:04:00
8:30 AM,69.8,66.2,88,30.15,10.0,South,6.9,-,N/A,,Overcast,170,2012-12-04 14:30:00
8:42 AM,69.8,66.2,88,30.16,10.0,South,4.6,-,N/A,,Overcast,180,2012-12-04 14:42:00
8:55 AM,69.1,66.0,90,30.17,10.0,South,6.9,-,N/A,,Overcast,170,2012-12-04 14:55:00
9:47 AM,71.6,66.2,83,30.17,10.0,South,5.8,-,N/A,,Overcast,180,2012-12-04 15:47:00
9:55 AM,71.1,66.9,87,30.18,10.0,South,6.9,-,N/A,,Overcast,180,2012-12-04 15:55:00
10:16 AM,71.6,66.2,83,30.18,10.0,South,10.4,-,N/A,,Overcast,180,2012-12-04 16:16:00
10:55 AM,72.0,66.0,81,30.18,10.0,SW,4.6,-,N/A,,Overcast,220,2012-12-04 16:55:00
11:27 AM,71.6,66.2,83,30.16,10.0,WSW,4.6,-,N/A,,Mostly Cloudy,240,2012-12-04 17:27:00
11:47 AM,73.4,66.2,78,30.15,10.0,South,5.8,-,0.00,Rain,Light Rain,190,2012-12-04 17:47:00
11:55 AM,73.0,66.9,81,30.15,10.0,SE,3.5,-,0.00,,Mostly Cloudy,130,2012-12-04 17:55:00
12:02 PM,73.4,66.2,78,30.14,10.0,Calm,Calm,-,N/A,,Overcast,0,2012-12-04 18:02:00
12:20 PM,73.4,66.2,78,30.13,10.0,Calm,Calm,-,N/A,,Mostly Cloudy,0,2012-12-04 18:20:00
12:31 PM,73.4,66.2,78,30.12,10.0,ESE,3.5,-,N/A,,Scattered Clouds,110,2012-12-04 18:31:00
12:55 PM,75.0,66.9,76,30.12,10.0,SSE,8.1,-,N/A,,Clear,150,2012-12-04 18:55:00
1:55 PM,73.0,66.0,79,30.09,10.0,SSE,6.9,-,N/A,,Clear,160,2012-12-04 19:55:00
2:31 PM,-9999,-9999,N/A,30.10,-9999.0,South,4.6,-,N/A,,Unknown,180,2012-12-04 20:31:00
2:55 PM,71.1,66.9,87,30.11,10.0,Calm,Calm,-,N/A,Thunderstorm,Thunderstorm,0,2012-12-04 20:55:00
3:44 PM,69.8,68.0,94,30.08,9.0,SW,3.5,-,0.02,Rain,Light Rain,220,2012-12-04 21:44:00
3:55 PM,70.0,68.0,93,30.10,9.0,Calm,Calm,-,0.02,,Mostly Cloudy,0,2012-12-04 21:55:00
4:24 PM,69.8,66.2,88,30.12,5.0,South,6.9,-,0.00,Rain-Thunderstorm,Light Thunderstorms and Rain,180,2012-12-04 22:24:00
4:38 PM,69.8,66.2,88,30.13,4.0,SW,13.8,20.7,0.04,Rain-Thunderstorm,Thunderstorms and Rain,220,2012-12-04 22:38:00
4:55 PM,64.0,61.0,90,30.12,5.0,South,13.8,-,0.17,Rain-Thunderstorm,Thunderstorms and Rain,180,2012-12-04 22:55:00
5:51 PM,62.6,60.8,94,30.08,8.0,ESE,18.4,27.6,0.09,Rain,Rain,120,2012-12-04 23:51:00
5:55 PM,63.0,60.1,90,30.09,9.0,SE,16.1,27.6,0.09,Rain,Light Rain,140,2012-12-04 23:55:00
6:55 PM,64.0,60.1,87,30.12,10.0,East,4.6,-,0.01,,Scattered Clouds,80,2012-12-05 00:55:00
7:55 PM,62.1,60.1,93,30.13,10.0,SSW,3.5,-,N/A,,Clear,210,2012-12-05 01:55:00
8:55 PM,63.0,61.0,93,30.17,10.0,SW,4.6,-,N/A,,Clear,220,2012-12-05 02:55:00
9:55 PM,61.0,59.0,93,30.15,9.0,South,3.5,-,N/A,,Clear,190,2012-12-05 03:55:00
10:55 PM,62.1,60.1,93,30.17,10.0,WSW,3.5,-,N/A,,Scattered Clouds,250,2012-12-05 04:55:00
11:55 PM,61.0,60.1,97,30.20,10.0,NNE,11.5,-,N/A,,Overcast,20,2012-12-05 05:55:00